Regional Weather Roundup
Issued by NWS

Home | Current Version | Previous Version | Text Only | Print | Product List | Glossary On
Versions: 1 2 3 4 5 6 7 8 9 10 11 12 13 14 15 16 17 18 19 20 21 22 23 24 25 26 27 28 29 30 31 32 33 34 35 36 37 38 39 40 41 42 43 44 45 46 47 48 49 50
000
ASUS43 KMPX 251010
RWRMN
WEATHER ROUNDUP FOR MINNESOTA
NATIONAL WEATHER SERVICE TWIN CITIES/CHANHASSEN MN
500 AM CDT MON SEP 25 2017


NOTE: "FAIR" INDICATES FEW OR NO CLOUDS BELOW 12,000 FEET WITH NO
SIGNIFICANT WEATHER AND/OR OBSTRUCTIONS TO VISIBILITY. N/A MEANS
CURRENT SKY AND/OR WEATHER CONDITIONS ARE NOT AVAILABLE.

MNZ060>063-068>070-251100-
   Twin Cities Metro

CITY           SKY/WX    TMP DP  RH WIND       PRES   REMARKS
TWIN CITIES    LGT RAIN  63  63 100 W8        29.97R
ST PAUL        CLOUDY    64  64 100 N5        29.96R
CRYSTAL        RAIN      60  57  89 NW9       29.95S
BLAINE         LGT RAIN  63  63 100 NW9       29.95S
LAKEVILLE      HVY RAIN  63  63 100 NW7       29.96R
EDEN PRAIRIE   LGT RAIN  62  60  93 NW7       29.95R
SOUTH ST PAUL  CLOUDY    65  65  97 CALM      29.95R
LAKE ELMO      DRIZZLE   64  63  94 CALM      29.96R
$$
MNZ001>005-007-008-013>017-022>024-027-028-251100-
   Northwest Minnesota

CITY           SKY/WX    TMP DP  RH WIND       PRES   REMARKS
BEMIDJI        CLOUDY    47  47  99 W8        30.02R FOG
HALLOCK        CLOUDY    48  46  93 N14       30.06S
ROSEAU         CLOUDY    46  43  87 NW12      30.03R
WARROAD        CLOUDY    46  43  87 NW8       30.03R FOG
THIEF RVR FALL LGT RAIN  47  47 100 NW9       30.06R FOG
CROOKSTON      CLOUDY    48  46  93 N10       30.08R
FOSSTON        DRIZZLE   46  45  93 NW10      30.04S
DETROIT LAKES  CLOUDY    48  46  93 NW9       30.04S
MOORHEAD       CLOUDY    48  46  93 N14       30.06S
PARK RAPIDS    MOCLDY    49  47  93 NW6       30.01R
MAHNOMEN       CLOUDY    47  46  97 NW9       30.04R
$$
MNZ006-009>011-018-025>026-251100-
   North Central Minnesota

CITY           SKY/WX    TMP DP  RH WIND       PRES   REMARKS
BAUDETTE       CLOUDY    50  49  96 NW12      29.99R
FLAG ISLAND    CLOUDY    48  46  93 NW15      30.00R FOG
INTL FALLS     FOG       50  49  96 W6        29.96S VSB 1
WASKISH        CLOUDY    50  48  93 W8        30.01R
BIG FORK       CLOUDY    48  46  93 CALM      30.00R FOG
LONGVILLE      CLOUDY    50  48  93 NW3       30.00S
GRAND RAPIDS   MOCLDY    50  49  96 NW7       30.01R
CRANE LAKE     CLOUDY    52  50  93 W3        29.97S FOG
ORR            CLOUDY    50  46  87 W8        29.95R
COOK           CLOUDY    50  50 100 W6        29.98R
WALKER         CLOUDY    47  47  98 NW3       30.01S
$$
MNZ012-019>021-037-251100-
   Northeast Minnesota

CITY           SKY/WX    TMP DP  RH WIND       PRES   REMARKS
DULUTH         CLOUDY    57  57 100 NW9       29.95R FOG
ELY            CLOUDY    54  54 100 NW6       29.94S
HIBBING        CLOUDY    51  50  96 NW6       29.98R
EVELETH        MOCLDY    54  53  97 NW9       29.98R
DULUTH HARBOR  CLOUDY    63  61  94 W9        29.94R
TWO HARBORS    CLOUDY    64  61  88 NW6       29.91R
SILVER BAY     CLOUDY    64  63  94 CALM      29.90R
GRAND MARAIS     N/A     62  62 100 SW8       29.85
G MARAIS ARPRT   N/A     63  59  88 CALM      29.90S FOG
$$
MNZ029>031-032-039>041-046>048-054>057-064-251100-
   West Central Minnesota

CITY           SKY/WX    TMP DP  RH WIND       PRES   REMARKS
FERGUS FALLS   CLOUDY    50  50 100 N7        30.05R
WHEATON        CLOUDY    50  46  87 NW7       30.07R
MORRIS         DRIZZLE   52  48  87 N9        30.02S
ALEXANDRIA     CLOUDY    51  49  92 NW12      30.04R
ELBOW LAKE     CLOUDY    50  48  95 N8        30.04R
WADENA         CLOUDY    48  48 100 NW6       30.02R
GLENWOOD       DRIZZLE   52  48  87 NW7       30.03R
APPLETON       LGT RAIN  52  48  87 N12       30.02S
BENSON         LGT RAIN  52  48  87 NE7       30.03F
ORTONVILLE     CLOUDY    50  48  93 N10       30.03S
MADISON        RAIN      54  54 100 N6        30.05R
WILLMAR        LGT RAIN  54  52  94 NW8       30.04S
$$
MNZ033>034-036-042>043-049>051-058-059-251100-
   Central Minnesota

CITY           SKY/WX    TMP DP  RH WIND       PRES   REMARKS
ST CLOUD       LGT RAIN  54  53  97 NW7       30.00R
SAUK CENTRE    LGT RAIN  51  49  91 N5        30.03R
PAYNESVILLE    LGT RAIN  53  52  95 N3        30.03R
AITKIN         CLOUDY    52  48  87 NW3       29.98S
PINE RIVER     CLOUDY    48  45  87 NW7       30.04S
BRAINERD       CLOUDY    52  50  93 NW9       30.00R
STAPLES        CLOUDY    48  46  93 NW6       30.02R
LITTLE FALLS   CLOUDY    52  45  76 NW6       30.01R
LITCHFIELD     RAIN      55  55 100 N10       30.00F
BUFFALO        HVY RAIN  57  55  91 NW7       30.00S
MAPLE LAKE     HVY RAIN  56  55  95 N9        30.00S
HUTCHINSON     HVY RAIN  55  55  98 NW8       29.99F
$$
MNZ037-044-045-052-053-251100-
   East Central Minnesota

CITY           SKY/WX    TMP DP  RH WIND       PRES   REMARKS
PRINCETON      CLOUDY    57  55  94 W6        30.00R
MORA           LGT RAIN  55  54  94 W3        30.00R
CAMBRIDGE      DRIZZLE   61  57  88 NW8       29.98S
RUSH CITY      CLOUDY    59  57  94 NW3       29.97S
MOOSE LAKE     CLOUDY    57  54  88 NW5       29.96R
HINCKLEY       LGT RAIN  59  59 100 W6        29.97R
CLOQUET        CLOUDY    57  54  88 W8        29.97R
MCGREGOR       CLOUDY    54  52  94 NW7       29.99R
$$
MNZ071>073-080-081-089-090-097-098-251100-
   Southwest Minnesota

CITY           SKY/WX    TMP DP  RH WIND       PRES   REMARKS
MONTEVIDEO     DRIZZLE   52  48  87 N9        30.04R
GRANITE FALLS  RAIN      53  52  94 NW8       30.04S
CANBY          LGT RAIN  52  51  95 N5        30.05R
MARSHALL       LGT RAIN  52  52 100 N12       30.03S
REDWOOD FALLS  RAIN      53  51  93 NW9       30.02R FOG
OLIVIA         HVY RAIN  52  50  93 NW10      30.02R
PIPESTONE      LGT RAIN  52  50  93 NE8       30.01S
WINDOM         LGT RAIN  54  52  94 N9        30.02R
JACKSON        CLOUDY    52  52 100 CALM      30.01R
TRACY          RAIN      53  53 100 N8        30.02S
SLAYTON        RAIN      51  46  82 N8        30.02S
$$
MNZ065>067-074>077-082>085-091>093-251100-
   South Central Minnesota

CITY           SKY/WX    TMP DP  RH WIND       PRES   REMARKS
MANKATO        RAIN      58  57  97 NW7       29.99R
NEW ULM        DRIZZLE   54  54 100 NW13      29.98S
ST JAMES       CLOUDY    54  54 100 NW10G16   30.00S
FAIRMONT       CLOUDY    56  55  97 N12       29.99R
FARIBAULT      LGT RAIN  63  63 100 NW3       29.96R
OWATONNA       CLOUDY    64  63  94 W7        29.96R
WASECA         CLOUDY    63  61  94 W7        29.98R
ALBERT LEA     CLOUDY    66  66 100 N5        29.95S FOG
$$
MNZ078>079-086>088-094>096-251100-
   Southeast Minnesota

CITY           SKY/WX    TMP DP  RH WIND       PRES   REMARKS
ROCHESTER      CLOUDY    64  63  96 N6        29.95F
RED WING       CLOUDY    70  64  83 CALM      29.92F
STANTON        CLOUDY    65  64  94 CALM      29.94R
DODGE CENTER   CLOUDY    66  64  94 N3        29.95S
WINONA         CLEAR     64  63  94 NW5       29.94R
AUSTIN         PTCLDY    64  63  94 CALM      29.94S FOG
PRESTON        CLEAR     63  60  90 CALM      29.95S
$$
ABBREVIATIONS USED IN REMARKS
   TC - TEMPERATURES IN CELSIUS
  WCI - WIND CHILL INDEX
   HX - HEAT INDEX
  VSB - VISIBILITY
$$




USA.gov is the U.S. government's official web portal to all federal, state and local government web resources and services.